#timestamp,LO_Frequency,Hit 
1498150815.7,286047008.0,N
1498150835.5,286047010.8,N
1498150855.3,286047007.8,N
1498150875.2,286047007.7,N
1498150895.9,286047008.1,N
1498150915.7,286047007.8,N
1498150935.5,286047010.4,N
1498150955.4,286047010.6,N
1498150975.2,286047009.8,N
1498150995.0,286047009.8,N
1498150995.9,286047009.8,N
1498151015.8,286047009.8,N
1498151035.6,286047010.1,N
1498151055.4,286047012.1,Y
1498151075.3,286047006.4,N
1498151095.1,286047007.6,N
1498151115.8,286047007.1,N
1498151135.7,286047005.1,N
1498151155.5,286047004.6,N
1498151175.3,286047007.5,N
1498151195.2,286047007.5,N
1498151215.9,286047006.2,N
1498151235.7,286047006.4,N
1498151255.5,286047006.1,N
1498151275.4,286047007.9,N
1498151295.2,286047010.2,N
1498151315.0,286047009.3,N
1498151315.9,286047009.3,N
1498151335.8,286047009.7,N
1498151355.6,286047008.6,N
1498151375.4,286047008.4,N
1498151395.3,286047008.0,N
1498151415.1,286047008.3,N
1498151416.0,286047008.3,N
1498151435.8,286047007.7,N
1498151455.7,286047008.1,N
1498151475.5,286047010.3,N
1498151495.3,286047010.3,N
1498151515.2,286047010.7,N
1498151535.9,286047009.6,N
1498151555.7,286047010.0,N
1498151575.5,286047010.4,N
1498151595.4,286047009.4,N
1498151615.2,286047010.1,N
1498151635.0,286047009.4,N
1498151635.9,286047009.4,N
1498151655.8,286047009.4,N
1498151675.6,286047009.6,N
1498151695.4,286047009.4,N
1498151715.3,286047011.9,Y
1498151735.1,286047007.4,N
1498151755.8,286047007.6,N
1498151775.7,286047007.0,N
1498151795.5,286047007.4,N
1498151815.3,286047006.8,N
1498151835.2,286047007.0,N
1498151855.9,286047006.5,N
1498151875.7,286047008.9,N
1498151895.6,286047008.0,N
1498151915.4,286047008.5,N
1498151935.2,286047007.9,N
1498151955.0,286047010.7,N
1498151956.0,286047010.7,N
1498151975.8,286047010.4,N
1498151995.6,286047010.3,N
1498152015.4,286047009.6,N
1498152035.3,286047012.4,Y
1498152055.1,286047003.9,N
1498152075.8,286047003.7,N
1498152095.7,286047003.2,N
1498152115.5,286047003.5,N
1498152135.3,286047003.5,N
1498152155.2,286047003.5,N
1498152175.9,286047004.2,N
1498152195.7,286047003.0,N
1498152215.6,286047003.2,N
1498152235.4,286047003.4,N
1498152255.2,286047003.0,N
1498152275.1,286047005.5,N
1498152276.0,286047005.5,N
1498152295.8,286047005.1,N
1498152315.6,286047005.0,N
1498152335.4,286047004.8,N
1498152355.3,286047004.7,N
1498152375.1,286047005.0,N
1498152395.8,286047007.2,N
1498152415.7,286047007.0,N
1498152435.5,286047007.0,N
1498152455.3,286047006.5,N
1498152475.2,286047008.8,N
1498152495.9,286047009.2,Y
1498152515.7,286046999.8,N
1498152535.6,286047002.2,N
1498152555.4,286047001.7,N
1498152575.2,286047001.9,N
1498152595.1,286047001.7,N
1498152596.0,286047001.7,N
1498152615.8,286047001.4,N
1498152635.6,286047004.2,N
1498152655.5,286047003.8,N
1498152675.3,286047003.5,N
1498152695.1,286047004.2,N
1498152715.8,286047003.1,N
1498152735.7,286047003.1,N
1498152755.5,286047006.0,N
1498152775.3,286047003.5,N
1498152795.2,286047002.9,N
1498152815.9,286047003.0,N
1498152835.7,286047005.8,N
1498152855.6,286047002.9,N
1498152875.4,286047005.6,N
1498152895.2,286047005.8,N
1498152915.1,286047005.1,N
1498152916.0,286047005.1,N
1498152935.8,286047005.2,N
1498152955.6,286047004.9,N
1498152975.5,286047005.2,N
1498152995.3,286047005.7,N
1498153015.1,286047005.6,N
1498153035.8,286047005.9,N
1498153055.7,286047005.6,N
1498153075.5,286047007.0,N
1498153095.3,286047006.8,N
1498153115.2,286047007.0,N
1498153135.9,286047007.0,N
1498153155.7,286047006.8,N
1498153175.6,286047006.2,N
1498153195.4,286047008.6,Y
1498153215.2,286047002.2,N
1498153235.1,286047000.2,N
1498153236.0,286047000.2,N
1498153255.8,286047000.9,N
1498153275.6,286047002.4,N
1498153295.5,286047002.6,N
1498153315.3,286047000.3,N
1498153335.1,286047000.1,N
1498153355.8,286047002.2,N
1498153375.7,286047001.5,N
1498153395.5,286047001.9,N
1498153415.3,286047004.0,N
1498153435.2,286047001.3,N
1498153455.9,286047001.5,N
1498153475.7,286047004.4,N
1498153495.6,286047004.4,N
1498153515.4,286047003.7,N
1498153535.2,286047001.8,N
1498153555.1,286047005.9,N
1498153556.0,286047005.9,N
1498153575.8,286047005.7,N
1498153595.6,286047005.5,N
1498153615.4,286047005.3,N
1498153635.3,286047002.9,N
1498153655.1,286047007.6,N
1498153675.8,286047004.5,N
1498153695.7,286047004.5,N
1498153715.5,286047004.5,N
1498153735.3,286047007.1,N
1498153755.2,286047004.7,N
1498153775.9,286047004.5,N
1498153795.7,286047006.3,N
1498153815.6,286047006.5,N
1498153835.4,286047008.8,Y
1498153855.2,286047000.6,N
1498153875.1,286047002.2,N
1498153876.0,286047002.2,N
1498153895.8,286047002.7,N
1498153915.6,286047002.0,N
1498153935.5,286047001.8,N
1498153955.3,286047001.6,N
1498153975.1,286047002.5,N
1498153995.8,286047002.3,N
1498154015.7,286047004.1,N
1498154035.5,286047001.5,N
1498154055.3,286047004.3,N
1498154075.2,286047001.3,N
1498154095.9,286047004.4,N
1498154115.7,286047001.4,N
1498154135.6,286047001.3,N
1498154155.5,286047001.4,N
1498154175.3,286047003.4,N
1498154195.2,286047003.0,N
1498154215.9,286047004.4,N
1498154235.7,286047004.1,N
1498154255.6,286047004.1,N
1498154275.4,286047004.4,N
1498154295.2,286047005.2,N
1498154315.0,286047004.9,N
1498154316.0,286047004.9,N
1498154335.8,286047004.8,N
1498154355.6,286047004.7,N
1498154375.4,286047005.1,N
1498154395.3,286047007.3,N
